DECAYED

COSMOS 2251 DEB, 35000 (Decayed)

Orbit data source: Space-Track

COSMOS 2251 DEB, 35000 was space debris in LEO originally from a launch on Wed, 16 Jun 1993 UTC launched from the Plesetsk Missile And Space Complex (PKMTR). The debris from Iridium 33, an American commercial communications satellite, has been tracked extensively since its accidental collision with the defunct Russian satellite Cosmos 2251 in 2009. This event, occurring at high speed in low Earth orbit (LEO), generated thousands of pieces of space debris, significantly increasing the risk of further collisions. The Iridium 33 debris cloud has impacted space traffic management and orbital debris mitigation strategies, making it a subject of ongoing study in space situational awareness.

Not visible in the next 10 days
Identifier
35000, 1993-036AFY
Orbit
Decayed
Country
Flag of CISCIS
Related business
Manufacturer
Unknown
Mission
Decayed spacecraft
Bus & Motor
Unknown
Mass
Unknown
Launch date (UTC)
1993-06-16 (33 years ago)
Launch vehicle
Unknown
Launch site
Plesetsk Missile And Space Complex (PKMTR)
Object type
Payload
Rocket body
Debris
Shape & HBR
Unknown shape, 0.1 m
Radar Cross Section
Small (<0.1 m²)

Expand to show TLE details & history
Last TLE update: 3 months ago

TLE from 3 months ago
0 COSMOS 2251 DEB
1 35000U 93036AFY 25344.02761036  .02092110  00000-0  78217-2 0  9994
2 35000  73.9939 204.1935 0009699 175.3945 184.7377 15.84722247884729
Epoch: 2025-12-10T00:39Z
TLE epoch observation values (Epoch: 2025-12-10T00:39:45.535Z)
Latitude
-0.00001°
Longitude
115.24994°
Altitude
326.366 km
Speed
7.709 km/s
True Right ascension
13h 36m 46s
True Declination
0° 00' 00"
Sunlit
Object was in daylight at epoch
Visualization orbit readout
Latitude
Unknown
Longitude
Unknown
Altitude
Unknown
Speed
Unknown
Apparent Right ascension
Unknown
Apparent Declination
Unknown
Sunlit
N/A
Visualization observer readout
Local Sidereal Time
17:46:39
Azimuth
Unknown
Elevation
Unknown
Doppler factor
Unknown
Orbital elements
Apogee altitude
321.064 km
Perigee altitude
308.082 km
Semi-major axis
6,692.71 km
Eccentricity
0.00097
Inclination
73.9939°
RAAN
204.1935°
Arg. of periapsis
175.3945°
True anomaly
184.72853°
Mean anomaly
184.7377°
Eccentric anomaly
184.73311°
Mean motion
3.96406 °/min
Orbital period
90.82 mins
BSTAR
0.0078217
Loading maneuver chart data...
Computing Atmospheric mass density...

Documentation

Showing up to 5 results
|